Flag for Canada Weather past 2 weeks in Labrador City, Newfoundland and Labrador, Canada

Now
45 °F

Overcast.


Feels Like: 40 °F
Forecast: 39 / 47 °F
Wind: 9 mph from Southwest

Location: Wabush Lake

Current Time: Sep 20, 2014 at 9:34:12 PM

Latest Report: Sep 20, 2014 at 9:00 PM


Visibility: 15 mi

Pressure: 29.64 "Hg

Humidity: 93%

Dew point: 43 °F

Location of Labrador CityLocation

Historic Weather in Labrador City — Graph

°F

Labrador City temperature yesterday

Maximum temperature yesterday: 43 °F (at 4:00 PM)
Minimum temperature yesterday: 27 °F (at 2:00 AM)
Average temperature yesterday: 35 °F

Past Weeks' High & Low Weather Summary

 TemperatureHumidityPressure
High68 °F (Sep 9, 3:00 PM)100% (Sep 7, 7:00 AM)30.33 "Hg (Sep 7, 7:00 AM)
Low25 °F (Sep 18, 2:00 AM)36% (Sep 17, 5:00 PM)29.21 "Hg (Sep 12, 3:00 AM)
Average42 °F79%29.91 "Hg
* Reported Sep 5 8:00 PM — Sep 20 8:00 PM, Labrador City, Weather by CustomWeather, © 2014

Note: Actual official high and low records may vary slightly from our data, if they occured in-between our weather recording intervals... More about our weather records

Advertising

Labrador City weather history for previous 24 hours

 ConditionsComfort  
Time TempWeatherWind HumidityBarometerVisibility
8:00 PM
Sep 20
45 °FSprinkles. Overcast.13 mph87%29.64 "Hg12 mi
7:00 PM45 °FOvercast.12 mph87%29.62 "Hg15 mi
6:00 PM43 °FSprinkles. Overcast.12 mph93%29.60 "Hg12 mi
5:00 PM43 °FSprinkles. Overcast.14 mph87%29.59 "Hg12 mi
4:00 PM41 °FSprinkles. Overcast.14 mph93%29.59 "Hg15 mi
3:00 PM41 °FSprinkles. Overcast.14 mph93%29.58 "Hg12 mi
2:00 PM39 °FSprinkles. Overcast.18 mph93%29.59 "Hg10 mi
10:00 AM39 °FSprinkles. Overcast.16 mph87%29.63 "Hg10 mi
9:00 AM37 °FSprinkles. Overcast.15 mph93%29.65 "Hg10 mi
8:57 AM37 °FOvercast.14 mph93%29.65 "Hg10 mi
8:00 AM36 °FSnow flurries. Overcast.14 mph93%29.68 "Hg10 mi
7:00 AM34 °FSnow flurries. Mostly cloudy.13 mph93%29.71 "Hg8 mi
6:00 AM34 °FSnow flurries. Overcast.15 mph93%29.74 "Hg5 mi
5:58 AM34 °FLight snow. Overcast.17 mph93%29.74 "Hg6 mi
5:01 AM34 °FLight snow. Mostly cloudy.14 mph93%29.77 "Hg7 mi
4:59 AM34 °FLight snow. Mostly cloudy.17 mph93%29.77 "Hg6 mi
4:03 AM34 °FLight snow. Mostly cloudy.13 mph87%29.83 "Hg2 mi
3:03 AM39 °FMostly cloudy.28 mph61%29.85 "Hg9 mi
3:00 AM39 °FMostly cloudy.16 mph56%29.86 "Hg9 mi
2:00 AM37 °FMostly cloudy.13 mph65%29.90 "Hg9 mi
1:00 AM37 °FOvercast.9 mph60%29.92 "Hg9 mi
12:00 AM37 °FOvercast.8 mph60%29.96 "Hg9 mi
11:00 PM
Sep 19
37 °FMostly cloudy.8 mph60%30.00 "Hg9 mi
10:00 PM37 °FMostly cloudy.8 mph56%30.04 "Hg15 mi
9:00 PM37 °FMostly cloudy.5 mph60%30.07 "Hg15 mi
Weather by CustomWeather, © 2014

See weather overviewHow to use our weather pages